User: anonymous   Login
Location: Newark
(44.0692°N, 7.2567°E)
Time: 08:48:38
(UTC+00:00)
Language:

CUBESAT XI-V - Orbit

View from above orbital plane
View from above orbital plane
View from above satellite
View from above satellite

Ground track
Ground track

The orbit data is extracted from the following two-line orbital elements,

1 28895U 05043F   19292.62784353 +.00000125 +00000-0 +32948-4 0  9993
2 28895 097.9773 071.2742 0015963 327.5015 032.5204 14.63700751745237
Epoch (UTC): 19 October 2019 15:04:05
Eccentricity: 0.0015963
inclination: 97.9773°
perigee height: 670 km
apogee height: 692 km
right ascension of ascending node: 71.2742°
argument of perigee: 327.5015°
revolutions per day: 14.63700751
mean anomaly at epoch: 32.5204°
orbit number at epoch: 74523

The dashed part of the orbit path shows where the satellite is in the earth's shadow,  

DLR